This is the latest recevied weather packets stored in our database for station/object XQ6AK-15. If no packets are shown the sender has not sent any weather packets the latest 1 day(s).
| Time | Temp. | Humidity | Pressure | Rain* | Wind** | Luminosity | Snow |
|---|---|---|---|---|---|---|---|
| 1778074079 | 8.33° C | 99% | 1007.3 hPa | 0 mm | - | 15 W/m² | - |
| 1778073776 | 8.33° C | 99% | 1007.1 hPa | 0 mm | - | 15 W/m² | - |
| 1778071355 | 8.33° C | 99% | 1006.2 hPa | 0 mm | - | 17 W/m² | - |
| 1778070447 | 8.33° C | 99% | 1006.2 hPa | 0 mm | - | 3 W/m² | - |
| 1778069843 | 8.33° C | 99% | 1006 hPa | 0 mm | - | 2 W/m² | - |
| 1778068934 | 8.33° C | 99% | 1005.9 hPa | 1.27 mm | - | 0 W/m² | - |
| 1778068027 | 8.33° C | 99% | 1006 hPa | 0 mm | - | 0 W/m² | - |
| 1778067423 | 8.33° C | 99% | 1005.8 hPa | 0 mm | - | 0 W/m² | - |
| 1778066514 | 8.33° C | 99% | 1005.8 hPa | 1.27 mm | - | 0 W/m² | - |
| 1778065909 | 8.33° C | 99% | 1005.7 hPa | 0 mm | - | 0 W/m² | - |
| 1778064395 | 8.89° C | 99% | 1005.3 hPa | 1.78 mm | - | 0 W/m² | - |
| 1778063486 | 8.89° C | 99% | 1005.3 hPa | 1.78 mm | - | 0 W/m² | - |
| 1778062578 | 8.89° C | 99% | 1005.3 hPa | 0 mm | - | 0 W/m² | - |
| 1778061973 | 8.89° C | 99% | 1005.4 hPa | 1.78 mm | - | 0 W/m² | - |
| 1778061671 | 8.89° C | 99% | 1005.4 hPa | 1.78 mm | - | 0 W/m² | - |
| 1778061370 | 8.89° C | 99% | 1005.5 hPa | 1.27 mm | - | 0 W/m² | - |
| 1778061066 | 8.89° C | 99% | 1005.4 hPa | 1.78 mm | - | 0 W/m² | - |
| 1778060461 | 8.89° C | 99% | 1005.4 hPa | 3.05 mm | - | 0 W/m² | - |
| 1778059856 | 8.89° C | 99% | 1005.2 hPa | 4.83 mm | - | 0 W/m² | - |
| 1778058949 | 8.89° C | 99% | 1005.2 hPa | 4.32 mm | - | 0 W/m² | - |
| 1778058646 | 8.89° C | 99% | 1005.2 hPa | 3.05 mm | - | 0 W/m² | - |
| 1778058344 | 9.44° C | 99% | 1005 hPa | 3.05 mm | - | 0 W/m² | - |
| 1778058040 | 9.44° C | 99% | 1005 hPa | 1.27 mm | - | 0 W/m² | - |
| 1778057433 | 8.89° C | 99% | 1005 hPa | 3.05 mm | - | 0 W/m² | - |
| 1778056826 | 8.89° C | 99% | 1004.9 hPa | 1.27 mm | - | 0 W/m² | - |
* Rain latest hour (hover to see other rain measurements)
** Current wind speed in m/s (hover to see current wind gust speed)